Regional Weather Roundup
Issued by NWS Portland, ME

Current Version | Previous Version | Graphics & Text | Print | Product List | Glossary On
Versions: 1 2 3 4 5 6 7 8 9 10 11 12 13 14 15 16 17 18 19 20 21 22 23 24 25 26 27 28 29 30 31 32 33 34 35 36 37 38 39 40 41 42 43 44 45 46 47 48 49 50
000
ASUS41 KGYX 100110
RWRGYX
WEATHER ROUNDUP FOR MAINE AND NEW HAMPSHIRE
NATIONAL WEATHER SERVICE GRAY ME
800 PM EST TUE FEB 09 2016

MEZ002-005-006-010-012-015-018-020-021-024-026-027-029-100200-
MAINE

CITY           SKY/WX    TMP DP  RH WIND       PRES   REMARKS
PORTLAND       CLEAR     21  14  74 N5        29.63S
SANFORD        CLEAR      9   5  85 CALM      29.60F
BAR HARBOR     CLOUDY    21  19  93 CALM      29.59S
WISCASSET      CLOUDY    18  14  84 CALM      29.63S
ROCKLAND       CLOUDY    21  15  78 VRB5      29.60F
FRYEBURG       CLOUDY    18  14  84 CALM      29.60S
LEWISTONAUBURN CLEAR     12   9  85 CALM      29.60S
AUGUSTA        CLEAR     16  12  84 NW3       29.60F
WATERVILLE     CLOUDY    12  10  92 N3        29.57F
BANGOR         LGT SNOW  21  17  84 N7        29.60F FOG
GREENVILLE       N/A     13  11  92 CALM      29.50F
MILLINOCKET    LGT SNOW  20  14  77 NW3       29.60F
HOULTON        LGT SNOW  18  15  88 CALM      29.57S FOG
PRESQUE ISLE   FLURRIES  16  13  88 CALM      29.60S
FRENCHVILLE    LGT SNOW  16  12  84 N5        29.56F FOG
CARIBOU        CLOUDY    17  13  84 N6        29.57F
$$

NHZ002-005-008-009-011-012-014-100200-
NEW HAMPSHIRE

CITY           SKY/WX    TMP DP  RH WIND       PRES   REMARKS
PORTSMOUTH     PTCLDY    24  14  64 NE5       29.60F
ROCHESTER      CLEAR     22  13  68 CALM      29.60S
NASHUA         CLEAR     18  16  93 CALM      29.62S
MANCHESTER     MOCLDY    20  14  77 CALM      29.59F
CONCORD        PTCLDY    15  12  88 CALM      29.60S
LACONIA        MOCLDY    16  12  86 CALM      29.59S
PLYMOUTH       CLOUDY    22  19  87 CALM      29.58S
BERLIN         CLOUDY    20  15  81 CALM      29.53F
WHITEFIELD     CLOUDY    24  15  68 CALM      29.53F
JAFFREY        CLOUDY    14  12  92 S3        29.55F
KEENE          MOCLDY    23  16  74 CALM      29.58F
LEBANON        CLOUDY    25  19  78 S3        29.57S
MT WASHINGTON  CLOUDY     7   3  85 W26         N/A  WCI -16
$$

VTZ005-007-008-100200-
VERMONT

CITY           SKY/WX    TMP DP  RH WIND       PRES   REMARKS
ST JOHNSBURY     N/A     19  13  77 MISG      29.55S
MONTPELIER     FLURRIES  23  16  74 S3        29.57S
BURLINGTON     FLURRIES  25  19  78 CALM      29.57F
$$

MAZ007-012-024-CTZ003-RIZ002-NYZ038-NYZ072-100200-
SOUTHERN NEW ENGLAND AND NY

CITY           SKY/WX    TMP DP  RH WIND       PRES   REMARKS
BOSTON         MOCLDY    28  18  66 NW7       29.62S
WORCESTER      PTCLDY    23  16  74 SE3       29.55F
NANTUCKET      CLOUDY    33  27  78 N8        29.59R
PROVIDENCE     MOCLDY    29  19  66 W3        29.63R
HARTFORD       MOCLDY    26  18  71 CALM      29.61R
ALBANY         LGT SNOW  28  23  81 E3        29.59F
NEW YORK CITY  CLOUDY    34  23  64 NE6       29.62R
$$

ANZ081-ANZ082-ANZ150-NHZ014-MEZ023>029-100200-
COASTAL MARINE OBSERVATIONS

STATION/POSITION TIME  TEMP    WIND        PRES    WAVE
                       AIR SEA DIR/SP/G            HT/PER
                 (UTC) (F)     (DEG/KT/KT) (MB)    (FT/S)
MOUNT DESERT ROC 0100   27     350/ 10/ 12 1001.3F
MATINICUS ROCK   0000          340/ 10/ 12 1002.3S
ISLE OF SHOALS   0000   28      10/  7/  8 1002.3R
JEFFREYS LEDGE   0004      44                N/A     8/14
CASHES LEDGE BUO 0050   29 43  330/ 10/ 14 1001.5F   7/13
GEORGES BANK BUO 0050   37 46               997.2R   9/12
$$

.............KEY..............
   WCI - WIND CHILL
   TC  - TEMPERATURE IN CELSIUS
   VSB - VISIBILITY IN MILES
   HX  - HEAT INDEX
   FAIR- INDICATES FEW OR NO CLOUDS BELOW 12,000 FT, WITH NO
         SIGNIFICANT WEATHER AND/OR OBSTRUCTIONS TO VISIBILITY.






USA.gov is the U.S. government's official web portal to all federal, state and local government web resources and services.